Hill City, KS

7:25 PM CST on February 24, 2017 (GMT -0600)
Hill City Municipal

Weather History for KHLC - February, 2014

Change the Weather History Date:

Thursday, February 27, 2014

  Actual Average Record
Temperature  
Mean Temperature 28 °F 36 °F  
Max Temperature 46 °F 50 °F 79 °F (2006)
Min Temperature 10 °F 23 °F -4 °F (1960)
Degree Days  
Heating Degree Days 37    
Moisture  
Dew Point 14 °F    
Average Humidity 58    
Maximum Humidity 84    
Minimum Humidity 28    
Precipitation  
Precipitation 0.00 in 0.02 in 0.13 in (2003)
Month to date precipitation 0.28 0.50  
Year to date precipitation 0.38 0.95  
Sea Level Pressure  
Sea Level Pressure 29.94 in    
Wind  
Wind Speed 9 mph (SE)    
Max Wind Speed 20 mph    
Max Gust Speed 25 mph    
Visibility 10 miles    
Events      
T = Trace of Precipitation, MM = Missing Value Source: NWS Daily Summary

Daily Weather History Graph

Daily Weather History Graph

Search for Another Location

Airport or City:

Trip Planner

Search our weather history database for the weather conditions in past years. The results will help you decide how hot, cold, wet, or windy it might be!

Date:

Astronomy

Feb. 27, 2014 Rise Set
Actual Time 7:14 AM CST 6:29 PM CST
Civil Twilight 6:47 AM CST 6:56 PM CST
Nautical Twilight 6:16 AM CST 7:27 PM CST
Astronomical Twilight 5:45 AM CST 7:58 PM CST
Moon 5:48 AM CST (2/27) 4:57 PM CST (2/27)
Length of Visible Light 12h 08m
Length of Day
11h 14m
Waning Crescent, 4% of the Moon is Illuminated
Feb 27
Waning Crescent
Mar 1
New
Mar 8
First Quarter
Mar 16
Full
Mar 23
Last Quarter

Hourly Weather History & Observations

Time (CST) Temp. Windchill Dew Point Humidity Pressure Visibility Wind Dir Wind Speed Gust Speed Precip Events Conditions
12:53 AM 19.0 °F 10.0 °F 12.0 °F 74% 30.10 in 10.0 mi West 6.9 mph - N/A   Clear
1:53 AM 18.0 °F 7.7 °F 12.0 °F 78% 30.09 in 10.0 mi West 8.1 mph - N/A   Clear
2:53 AM 18.0 °F 6.9 °F 10.9 °F 74% 30.09 in 10.0 mi West 9.2 mph - N/A   Clear
3:53 AM 16.0 °F 8.8 °F 10.9 °F 81% 30.07 in 10.0 mi West 4.6 mph - N/A   Clear
4:53 AM 12.9 °F 5.2 °F 9.0 °F 84% 30.08 in 10.0 mi SSW 4.6 mph - N/A   Clear
5:53 AM 12.0 °F - 8.1 °F 84% 30.08 in 10.0 mi Calm Calm - N/A   Clear
6:53 AM 10.0 °F - 6.1 °F 84% 30.11 in 10.0 mi Calm Calm - N/A   Clear
7:53 AM 15.1 °F 9.4 °F 10.0 °F 80% 30.10 in 10.0 mi East 3.5 mph - N/A   Clear
8:53 AM 21.0 °F 8.1 °F 14.0 °F 74% 30.09 in 10.0 mi East 13.8 mph - N/A   Clear
9:53 AM 24.1 °F 12.0 °F 16.0 °F 71% 30.08 in 10.0 mi East 13.8 mph - N/A   Clear
10:53 AM 28.9 °F 17.3 °F 17.1 °F 61% 30.03 in 10.0 mi SE 16.1 mph 20.7 mph N/A   Clear
11:53 AM 33.1 °F 21.9 °F 17.1 °F 52% 29.98 in 10.0 mi SE 18.4 mph - N/A   Clear
12:53 PM 37.0 °F 27.4 °F 18.0 °F 46% 29.94 in 10.0 mi SE 17.3 mph 25.3 mph N/A   Clear
1:53 PM 41.0 °F 32.5 °F 16.0 °F 36% 29.89 in 10.0 mi SE 17.3 mph 23.0 mph N/A   Clear
2:53 PM 43.0 °F 34.5 °F 14.0 °F 31% 29.83 in 10.0 mi SE 19.6 mph - N/A   Clear
3:53 PM 46.0 °F 39.9 °F 14.0 °F 28% 29.82 in 10.0 mi SSE 13.8 mph 23.0 mph N/A   Clear
4:53 PM 45.0 °F 37.6 °F 14.0 °F 29% 29.79 in 10.0 mi SE 17.3 mph - N/A   Clear
5:53 PM 42.1 °F 35.2 °F 15.1 °F 34% 29.78 in 10.0 mi ESE 12.7 mph - N/A   Clear
6:53 PM 37.0 °F 29.8 °F 15.1 °F 41% 29.78 in 10.0 mi ESE 10.4 mph - N/A   Clear
7:53 PM 34.0 °F 26.6 °F 16.0 °F 48% 29.78 in 10.0 mi ESE 9.2 mph - N/A   Clear
8:53 PM 34.0 °F 26.6 °F 17.1 °F 50% 29.76 in 10.0 mi ESE 9.2 mph - N/A   Clear
9:53 PM 34.0 °F 25.0 °F 16.0 °F 48% 29.74 in 10.0 mi ESE 12.7 mph - N/A   Clear
10:53 PM 33.1 °F 24.9 °F 16.0 °F 50% 29.72 in 10.0 mi ESE 10.4 mph - N/A   Partly Cloudy
11:53 PM 28.9 °F 19.8 °F 16.0 °F 58% 29.72 in 10.0 mi East 10.4 mph - N/A   Clear